Regional Weather Roundup
Issued by NWS Portland, ME

Home | Current Version | Previous Version | Text Only | Print | Product List | Glossary On
Versions: 1 2 3 4 5 6 7 8 9 10 11 12 13 14 15 16 17 18 19 20 21 22 23 24 25 26 27 28 29 30 31 32 33 34 35 36 37 38 39 40 41 42 43 44 45 46 47 48 49 50
000
ASUS41 KGYX 261310
RWRGYX
WEATHER ROUNDUP FOR MAINE AND NEW HAMPSHIRE
NATIONAL WEATHER SERVICE GRAY ME
900 AM EDT SUN APR 26 2015

MEZ002-005-006-010-012-015-018-020-021-024-026-027-029-261400-
MAINE

CITY           SKY/WX    TMP DP  RH WIND       PRES   REMARKS
PORTLAND       CLOUDY    49  34  56 VRB5      29.66F
SANFORD        CLOUDY    46  30  53 W3        29.66F
BAR HARBOR     CLOUDY    45  37  76 N3        29.63S
WISCASSET      CLOUDY    45  36  70 CALM      29.66F
ROCKLAND       CLOUDY    45  36  70 NE7       29.63F
FRYEBURG       MOSUNNY   49  33  54 NW6       29.64F
LEWISTONAUBURN PTSUNNY   46  34  61 N9        29.65F
AUGUSTA        CLOUDY    43  33  68 W3        29.65S
WATERVILLE     CLOUDY    43  34  70 CALM      29.63S
BANGOR         CLOUDY    43  34  70 NW6       29.64S
GREENVILLE       N/A     36  35  96 NW6       29.59R
MILLINOCKET    CLOUDY    43  36  76 CALM      29.64R
HOULTON        CLOUDY    41  35  79 N8        29.60S
PRESQUE ISLE   CLOUDY    39  34  81 N6        29.62R
FRENCHVILLE    CLOUDY    38  35  89 NW8       29.60R
CARIBOU        CLOUDY    40  35  83 N9        29.60R
$$

NHZ002-005-008-009-011-012-014-261400-
NEW HAMPSHIRE

CITY           SKY/WX    TMP DP  RH WIND       PRES   REMARKS
PORTSMOUTH     PTSUNNY   45  34  65 NW2       29.66S
ROCHESTER      CLOUDY    45  33  63 NW7       29.66S
NASHUA         PTSUNNY   48  32  54 NW10G16   29.68F
MANCHESTER     CLOUDY    47  31  53 N7        29.67S
CONCORD        CLOUDY    46  32  58 W6        29.68S
LACONIA        CLOUDY    46  34  61 NW7       29.65F
PLYMOUTH       CLOUDY    45  38  78 W6        29.68S
BERLIN         CLOUDY    42  34  73 W7        29.64S
WHITEFIELD     CLOUDY    40  34  79 CALM      29.67F
JAFFREY        CLOUDY    45  30  55 NW6       29.67S
KEENE          CLOUDY    43  30  61 CALM      29.69S
LEBANON        CLOUDY    43  34  70 CALM      29.69S
MT WASHINGTON  FOG       21  21 100 N36         N/A  VSB 0   WCI   2
$$

VTZ005-007-008-261400-
VERMONT

CITY           SKY/WX    TMP DP  RH WIND       PRES   REMARKS
ST JOHNSBURY     N/A     40  35  83 MISG      29.68S
MONTPELIER     CLOUDY    42  34  73 NW6       29.73R
BURLINGTON     PTSUNNY   46  31  55 N7        29.72S
$$

MAZ007-012-024-CTZ003-RIZ002-NYZ038-NYZ072-261400-
SOUTHERN NEW ENGLAND AND NY

CITY           SKY/WX    TMP DP  RH WIND       PRES   REMARKS
BOSTON         PTSUNNY   48  33  56 N8        29.68F
WORCESTER      CLOUDY    46  29  51 NW10      29.66F
NANTUCKET      SUNNY     49  32  52 N10       29.66F
PROVIDENCE     MOSUNNY   51  31  46 N6        29.68F
HARTFORD       PTSUNNY   46  30  53 W3        29.69S
ALBANY         PTSUNNY   47  31  53 W3        29.74S
NEW YORK CITY  MOSUNNY   50  31  48 NE9       29.71R
$$

ANZ081-ANZ082-ANZ150-NHZ014-MEZ023>029-261400-
COASTAL MARINE OBSERVATIONS

STATION/POSITION TIME  TEMP    WIND        PRES    WAVE
                       AIR SEA DIR/SP/G            HT/PER
                 (UTC) (F)     (DEG/KT/KT) (MB)    (FT/S)
$$

.............KEY..............
   WCI - WIND CHILL
   TC  - TEMPERATURE IN CELSIUS
   VSB - VISIBILITY IN MILES
   HX  - HEAT INDEX
   FAIR- INDICATES FEW OR NO CLOUDS BELOW 12,000 FT, WITH NO
         SIGNIFICANT WEATHER AND/OR OBSTRUCTIONS TO VISIBILITY.





USA.gov is the U.S. government's official web portal to all federal, state and local government web resources and services.